Location: Passau
(48.5830°N, 13.4830°E)
Time: 05:42:43
(UTC+02:00)

Vanguard 1 - Pass Details

Date: 28 July 2021
Orbit: 652 x 3831 km, 34.3° (Epoch: 16 September)

Event Time Altitude Azimuth Distance (km) Brightness Sun altitude
Rises 18:26:20 0° 265° (W) 4,948 15.1 21.6°
Reaches altitude 10° 18:30:10 10° 250° (WSW) 4,410 14.8 20.9°
Maximum altitude 18:39:01 22° 206° (SSW) 4,410 13.8 19.5°
Drops below altitude 10° 18:51:27 10° 165° (SSE) 6,339 14.0 17.4°
Sets 18:58:54 0° 153° (SSE) 7,738 14.3 16.2°
